• Join FlightAware (Why Join?)
  • Login
  • US Flag 
06:50PM EDT


 

Airport Tracker/Info


-or-


 

Live Flight TrackerFlight Track Log ✈ SWA1015 ✈ 12-Apr-2013 ✈ KLAS - KSJC

Flight Track Log - Related Links

Times and Time Zones

All times are in EDT time to prevent confusion due to time zone crossing. See the SWA1015 flight status page for this flight to view local times or setup timezone preferences in your user account.

Time Position Orientation Groundspeed Altitude Reporting Facility
EDT Latitude Longitude Course Direction KTS MPH feet Rate Location/Type
09:11AM 36.0742 -115.1689 270° West 165 190 3,100  Level Los Angeles Center
09:12AM 36.0742 -115.2089 270° West 196 226 4,300 2,400 Climbing Los Angeles Center
09:13AM 36.0572 -115.2586 247° West 231 266 6,400 2,400 Climbing Los Angeles Center
09:13AM 36.0400 -115.2706 209° Southwest 254 292 6,800 540 Climbing Los Angeles Center
09:14AM 35.9858 -115.2917 198° South 261 300 7,000 240 Climbing Los Angeles Center
09:14AM 35.9675 -115.3050 210° Southwest 283 326 7,100 1,440 Climbing Los Angeles Center
09:15AM 35.9261 -115.3550 224° Southwest 277 319 8,500 1,200 Climbing Los Angeles Center
09:16AM 35.8850 -115.4347 238° Southwest 286 329 9,300 1,260 Climbing Los Angeles Center
09:17AM 35.8883 -115.5392 272° West 295 339 11,100 840 Climbing Los Angeles Center
09:18AM 35.8897 -115.6542 271° West 331 381 11,100 1,380 Level Los Angeles Center
09:19AM 35.8919 -115.7797 271° West 341 392 14,000 3,240 Climbing Los Angeles Center
09:20AM 35.9208 -115.8978 287° West 361 415 17,800 3,600 Climbing Los Angeles Center
09:21AM 35.9578 -116.0144 291° West 367 422 21,400 3,060 Climbing Los Angeles Center
09:22AM 35.9931 -116.1278 291° West 379 436 24,100 2,340 Climbing Los Angeles Center
09:23AM 36.0244 -116.2306 291° West 392 451 26,200 2,760 Climbing Los Angeles Center
09:24AM 36.0722 -116.3836 291° West 399 459 29,700 2,760 Climbing Los Angeles Center
09:25AM 36.1111 -116.5106 291° West 398 458 31,900 1,080 Climbing Los Angeles Center
09:26AM 36.1500 -116.6381 291° West 398 458 32,000  Climbing Los Angeles Center
09:27AM 36.1964 -116.7908 291° West 397 457 32,000  Level Los Angeles Center
09:28AM 36.2342 -116.9169 290° West 394 453 32,000  Level Los Angeles Center
09:29AM 36.2725 -117.0436 291° West 395 455 32,000  Level Los Angeles Center
09:30AM 36.3108 -117.1722 290° West 397 457 32,000  Level Los Angeles Center
09:31AM 36.3489 -117.3003 290° West 398 458 32,000  Level Los Angeles Center
09:32AM 36.3867 -117.4272 290° West 396 456 32,000  Level Los Angeles Center
09:33AM 36.4247 -117.5564 290° West 398 458 32,000  Level Los Angeles Center
09:34AM 36.4619 -117.6822 290° West 394 453 32,000  Level Los Angeles Center
09:35AM 36.4983 -117.8075 290° West 391 450 32,000  Level Los Angeles Center
09:36AM 36.5361 -117.9361 290° West 394 453 32,000  Level Los Angeles Center
09:37AM 36.5817 -118.0903 290° West 397 457 32,000  Level Los Angeles Center
09:38AM 36.6189 -118.2192 290° West 398 458 32,000  Level Los Angeles Center
09:38AM 36.6242 -118.2397 288° West 400 460 32,000  Level Oakland Center
09:39AM 36.6564 -118.3475 290° West 397 457 32,000  Level Los Angeles Center
09:39AM 36.6689 -118.3961 288° West 400 460 32,000  Level Oakland Center
09:40AM 36.7017 -118.5094 290° West 394 453 32,000  Level Oakland Center
09:41AM 36.7383 -118.6372 290° West 390 449 32,000  Level Oakland Center
09:42AM 36.7753 -118.7650 290° West 390 449 32,000  Level Oakland Center
09:43AM 36.8097 -118.8900 289° West 385 443 32,000  Level Oakland Center
09:45AM 36.8433 -119.0158 288° West 383 441 32,000  Level Oakland Center
09:46AM 36.8792 -119.1414 290° West 385 443 32,000  Level Oakland Center
09:47AM 36.9186 -119.2886 289° West 371 427 32,000  Level Oakland Center
09:48AM 36.9539 -119.4164 289° West 385 443 32,000  Level Oakland Center
09:49AM 36.9878 -119.5414 289° West 382 440 32,000 -300 Level Oakland Center
09:50AM 37.0214 -119.6664 289° West 379 436 31,400 -1,320 Descending Oakland Center
09:51AM 37.0550 -119.7883 289° West 372 428 29,400 -1,920 Descending Oakland Center
09:52AM 37.0831 -119.8969 288° West 359 413 27,500 -1,740 Descending Oakland Center
09:53AM 37.1139 -120.0128 288° West 351 404 25,900 -1,440 Descending Oakland Center
09:54AM 37.1503 -120.1506 288° West 348 400 24,700 -1,140 Descending Oakland Center
09:55AM 37.1817 -120.2675 289° West 352 405 23,700 -1,020 Descending Oakland Center
09:56AM 37.2106 -120.3808 288° West 342 394 22,700 -960 Descending Oakland Center
09:56AM 37.2167 -120.4167 282° West 348 400 22,400 -1,080 Descending Northern Cal TRACON
09:57AM 37.1833 -120.5333 250° West 439 505 21,400 -2,580 Descending Northern Cal TRACON
09:58AM 37.1667 -120.6667 261° West 363 418 17,600 -3,120 Descending Northern Cal TRACON
09:59AM 37.1333 -120.7833 250° West 383 441 15,200 -1,860 Descending Northern Cal TRACON
10:00AM 37.1200 -120.8714 259° West 345 397 14,300 -1,140 Descending Oakland Center
10:01AM 37.1247 -120.9817 273° West 319 367 13,200 -1,080 Descending Oakland Center
10:02AM 37.1306 -121.0883 274° West 308 354 12,200 -960 Descending Oakland Center
10:03AM 37.1358 -121.1947 274° West 307 353 11,300 -1,140 Descending Oakland Center
10:04AM 37.1419 -121.2961 274° West 296 341 10,000 -720 Descending Oakland Center
10:05AM 37.1481 -121.3975 274° West 292 336 9,900 -840 Descending Oakland Center
10:06AM 37.1519 -121.4992 273° West 292 336 8,400 -1,260 Descending Oakland Center
10:07AM 37.1575 -121.5956 274° West 283 326 7,400 -1,140 Descending Oakland Center
10:08AM 37.1622 -121.6783 274° West 250 288 6,200 -1,620 Descending Oakland Center
10:09AM 37.1972 -121.7522 301° West 235 270 4,200 -1,680 Descending Oakland Center
10:10AM 37.2419 -121.7989 320° Northwest 219 252 2,900 -1,140 Descending Oakland Center
10:11AM 37.2817 -121.8414 320° Northwest 203 234 2,000 -840 Descending Oakland Center
10:12AM 37.3117 -121.8753 318° Northwest 169 194 1,200 -780 Descending Oakland Center
10:13AM 37.3394 -121.9042 320° Northwest 143 165 500 9,240 Descending Oakland Center
10:14AM 37.3661 -121.9347 318° Northwest 134 154 20,000 19,140 Climbing Oakland Center
10:16AM 37.3627 -121.9291 North  Level Estimated